Location: Unspecified
(0.0000°N, 0.0000°E)
Time: 01:02:11
(UTC+00:00)

USA 102 - Visible Passes

Search period start: 21 May 2019 00:00
Search period end: 31 May 2019 00:00
Orbit: 263 x 266 km, 105.1° (Epoch: 02 June)

Date Brightness Start Highest point End Pass type
(mag) Time Alt. Az. Time Alt. Az. Time Alt. Az.
22 May 6.4 19:46:08 14° NNW 19:46:08 14° NNW 19:47:16 10° NNW visible
23 May 6.6 19:14:47 10° NE 19:14:47 10° NE 19:14:53 10° NE visible
23 May 6.8 20:05:08 15° NNW 20:05:08 15° NNW 20:06:10 10° NNW visible
